| time (UTC) | temp C | wind direction | speed KPH | gust KPH | rain 1hr cm | rain 24hr cm | rain mn cm | humidity % | barometer mb |
| 20260506002333 | 23 | 186 | 14.5 | 22.5 | 0.00 | 0.00 | 0.00 | 33 | 1006.7 |
| 20260506001332 | 23 | 200 | 12.9 | 22.5 | 0.00 | 0.00 | 0.00 | 34 | 1006.5 |
| 20260506000334 | 23 | 174 | 9.7 | 17.7 | 0.00 | 0.00 | 0.00 | 35 | 1006.4 |
| 20260505235339 | 24 | 180 | 9.7 | 20.9 | 0.00 | 0.00 | 0.00 | 35 | 1006.3 |
| 20260505234337 | 24 | 181 | 11.3 | 22.5 | 0.00 | 0.00 | 0.00 | 34 | 1006.3 |
| 20260505233359 | 25 | 178 | 11.3 | 24.1 | 0.00 | 0.00 | 0.00 | 34 | 1006.4 |
| 20260505232350 | 25 | 215 | 11.3 | 22.5 | 0.00 | 0.00 | 0.00 | 34 | 1006.3 |
| 20260505231317 | 25 | 164 | 11.3 | 24.1 | 0.00 | 0.00 | 0.00 | 34 | 1006.3 |
| 20260505230340 | 25 | 185 | 9.7 | 24.1 | 0.00 | 0.00 | 0.00 | 33 | 1006.2 |
| 20260505225319 | 25 | 205 | 11.3 | 24.1 | 0.00 | 0.00 | 0.00 | 34 | 1006.1 |
| 20260505224315 | 26 | 199 | 12.9 | 27.4 | 0.00 | 0.00 | 0.00 | 33 | 1006.3 |
| 20260505223339 | 26 | 135 | 16.1 | 27.4 | 0.00 | 0.00 | 0.00 | 34 | 1006.2 |
| 20260505222335 | 26 | 197 | 12.9 | 29.0 | 0.00 | 0.00 | 0.00 | 34 | 1006.4 |
| 20260505221317 | 26 | 146 | 11.3 | 33.8 | 0.00 | 0.00 | 0.00 | 34 | 1006.2 |
| 20260505220333 | 26 | 161 | 12.9 | 27.4 | 0.00 | 0.00 | 0.00 | 34 | 1006.3 |
| 20260505215314 | 26 | 132 | 16.1 | 30.6 | 0.00 | 0.00 | 0.00 | 33 | 1006.3 |
| 20260505214317 | 26 | 248 | 12.9 | 33.8 | 0.00 | 0.00 | 0.00 | 34 | 1006.4 |
| 20260505213339 | 26 | 206 | 14.5 | 35.4 | 0.00 | 0.00 | 0.00 | 34 | 1006.4 |
| 20260505212314 | 26 | 196 | 12.9 | 29.0 | 0.00 | 0.00 | 0.00 | 35 | 1006.2 |
| 20260505211329 | 27 | 169 | 17.7 | 35.4 | 0.00 | 0.00 | 0.00 | 34 | 1006.1 |
| 20260505210353 | 28 | 200 | 11.3 | 32.2 | 0.00 | 0.00 | 0.00 | 36 | 1006.1 |
| 20260505205356 | 28 | 220 | 9.7 | 27.4 | 0.00 | 0.00 | 0.00 | 35 | 1006.1 |
| 20260505204319 | 28 | 250 | 16.1 | 33.8 | 0.00 | 0.00 | 0.00 | 32 | 1006.1 |
| 20260505203353 | 28 | 222 | 17.7 | 35.4 | 0.00 | 0.00 | 0.00 | 28 | 1006.2 |
| 20260505202318 | 28 | 202 | 17.7 | 38.6 | 0.00 | 0.00 | 0.00 | 28 | 1006.1 |
| 20260505201339 | 28 | 219 | 16.1 | 27.4 | 0.00 | 0.00 | 0.00 | 28 | 1006.1 |
| 20260505200336 | 28 | 219 | 20.9 | 35.4 | 0.00 | 0.00 | 0.00 | 28 | 1006.3 |
| 20260505195317 | 29 | 209 | 17.7 | 27.4 | 0.00 | 0.00 | 0.00 | 28 | 1006.4 |
| 20260505194339 | 28 | 180 | 14.5 | 35.4 | 0.00 | 0.00 | 0.00 | 28 | 1006.4 |
| 20260505193315 | 29 | 211 | 12.9 | 25.7 | 0.00 | 0.00 | 0.00 | 34 | 1006.5 |
| 20260505192314 | 28 | 177 | 14.5 | 25.7 | 0.00 | 0.00 | 0.00 | 37 | 1006.5 |
| 20260505191337 | 28 | 185 | 11.3 | 29.0 | 0.00 | 0.00 | 0.00 | 34 | 1006.8 |
| 20260505190401 | 28 | 229 | 14.5 | 25.7 | 0.00 | 0.00 | 0.00 | 34 | 1007.0 |
| 20260505185338 | 28 | 233 | 14.5 | 29.0 | 0.00 | 0.00 | 0.00 | 33 | 1007.1 |
| 20260505184339 | 28 | 195 | 12.9 | 29.0 | 0.00 | 0.00 | 0.00 | 33 | 1007.2 |
| 20260505183314 | 28 | 187 | 12.9 | 40.2 | 0.00 | 0.00 | 0.00 | 33 | 1007.3 |
| 20260505182317 | 28 | 195 | 16.1 | 32.2 | 0.00 | 0.00 | 0.00 | 33 | 1007.4 |
| 20260505181328 | 28 | 180 | 14.5 | 32.2 | 0.00 | 0.00 | 0.00 | 33 | 1007.6 |
| 20260505180337 | 27 | 248 | 16.1 | 35.4 | 0.00 | 0.00 | 0.00 | 34 | 1007.7 |
| 20260505175336 | 28 | 205 | 14.5 | 32.2 | 0.00 | 0.00 | 0.00 | 34 | 1007.9 |
| 20260505174333 | 28 | 167 | 14.5 | 30.6 | 0.00 | 0.00 | 0.00 | 37 | 1007.9 |
| 20260505173334 | 27 | 187 | 14.5 | 29.0 | 0.00 | 0.00 | 0.00 | 34 | 1008.0 |
| 20260505172321 | 27 | 191 | 14.5 | 27.4 | 0.00 | 0.00 | 0.00 | 36 | 1008.0 |
| 20260505171315 | 28 | 150 | 14.5 | 30.6 | 0.00 | 0.00 | 0.00 | 33 | 1008.1 |
| 20260505170316 | 28 | 219 | 11.3 | 33.8 | 0.00 | 0.00 | 0.00 | 35 | 1008.2 |
| 20260505165319 | 27 | 135 | 14.5 | 30.6 | 0.00 | 0.00 | 0.00 | 37 | 1008.3 |
| 20260505164313 | 27 | 198 | 14.5 | 33.8 | 0.00 | 0.00 | 0.00 | 38 | 1008.5 |
| 20260505163313 | 27 | 163 | 16.1 | 32.2 | 0.00 | 0.00 | 0.00 | 36 | 1008.6 |
| 20260505162336 | 27 | 232 | 16.1 | 32.2 | 0.00 | 0.00 | 0.00 | 38 | 1008.8 |
| 20260505161313 | 26 | 202 | 17.7 | 25.7 | 0.00 | 0.00 | 0.00 | 39 | 1009.1 |
| 20260505160315 | 26 | 192 | 8.0 | 33.8 | 0.00 | 0.00 | 0.00 | 42 | 1009.2 |
| 20260505153316 | 26 | 194 | 9.7 | 25.7 | 0.00 | 0.00 | 0.00 | 40 | 1009.3 |
| 20260505152358 | 26 | 208 | 16.1 | 27.4 | 0.00 | 0.00 | 0.00 | 40 | 1009.3 |
| 20260505151327 | 25 | 190 | 12.9 | 22.5 | 0.00 | 0.00 | 0.00 | 43 | 1009.5 |
| 20260505150328 | 26 | 163 | 11.3 | 29.0 | 0.00 | 0.00 | 0.00 | 40 | 1009.3 |
| 20260505140326 | 23 | 207 | 6.4 | 20.9 | 0.00 | 0.00 | 0.00 | 48 | 1009.3 |
| 20260505124334 | 20 | 200 | 11.3 | 17.7 | 0.00 | 0.00 | 0.00 | 53 | 1010.1 |
| 20260505123316 | 20 | 205 | 9.7 | 17.7 | 0.00 | 0.00 | 0.00 | 54 | 1010.1 |
| 20260505122313 | 19 | 225 | 6.4 | 16.1 | 0.00 | 0.00 | 0.00 | 55 | 1010.3 |
| 20260505121312 | 18 | 138 | 12.9 | 22.5 | 0.00 | 0.00 | 0.00 | 56 | 1010.3 |
| 20260505120330 | 18 | 212 | 11.3 | 24.1 | 0.00 | 0.00 | 0.00 | 57 | 1010.3 |
| 20260505115313 | 17 | 192 | 9.7 | 19.3 | 0.00 | 0.00 | 0.00 | 58 | 1010.3 |
| 20260505114334 | 17 | 219 | 9.7 | 22.5 | 0.00 | 0.00 | 0.00 | 59 | 1010.0 |
| 20260505113335 | 17 | 165 | 6.4 | 11.3 | 0.00 | 0.00 | 0.00 | 60 | 1009.9 |
| 20260505112318 | 17 | 206 | 4.8 | 11.3 | 0.00 | 0.00 | 0.00 | 60 | 1009.7 |
| 20260505111346 | 16 | 140 | 8.0 | 14.5 | 0.00 | 0.00 | 0.00 | 60 | 1009.6 |
| 20260505110329 | 16 | 203 | 6.4 | 12.9 | 0.00 | 0.00 | 0.00 | 60 | 1009.4 |
| 20260505101320 | 17 | 154 | 9.7 | 14.5 | 0.00 | 0.00 | 0.00 | 58 | 1008.9 |
| 20260505100314 | 17 | 121 | 11.3 | 16.1 | 0.00 | 0.00 | 0.00 | 58 | 1008.8 |
| 20260505095331 | 17 | 146 | 8.0 | 16.1 | 0.00 | 0.00 | 0.00 | 58 | 1008.8 |
| 20260505094312 | 17 | 146 | 9.7 | 17.7 | 0.00 | 0.00 | 0.00 | 59 | 1008.8 |
| 20260505093313 | 17 | 195 | 6.4 | 14.5 | 0.00 | 0.00 | 0.00 | 58 | 1008.9 |
| 20260505092336 | 17 | 208 | 11.3 | 14.5 | 0.00 | 0.00 | 0.00 | 58 | 1008.8 |
| 20260505091312 | 17 | 177 | 11.3 | 17.7 | 0.00 | 0.00 | 0.00 | 59 | 1008.7 |
| 20260505090329 | 17 | 192 | 6.4 | 14.5 | 0.00 | 0.00 | 0.00 | 60 | 1008.7 |
| 20260505085316 | 17 | 193 | 6.4 | 16.1 | 0.00 | 0.00 | 0.00 | 60 | 1008.7 |
| 20260505084336 | 17 | 148 | 4.8 | 12.9 | 0.00 | 0.00 | 0.00 | 59 | 1008.6 |
| 20260505083320 | 17 | 158 | 11.3 | 17.7 | 0.00 | 0.00 | 0.00 | 59 | 1008.5 |
| 20260505082319 | 17 | 190 | 9.7 | 19.3 | 0.00 | 0.00 | 0.00 | 60 | 1008.4 |
| 20260505081323 | 17 | 157 | 8.0 | 19.3 | 0.00 | 0.00 | 0.00 | 60 | 1008.4 |
| 20260505080317 | 17 | 183 | 8.0 | 17.7 | 0.00 | 0.00 | 0.00 | 60 | 1008.4 |
| 20260505075328 | 17 | 143 | 8.0 | 16.1 | 0.00 | 0.00 | 0.00 | 60 | 1008.4 |
| 20260505074402 | 17 | 134 | 9.7 | 16.1 | 0.00 | 0.00 | 0.00 | 59 | 1008.3 |
| 20260505073318 | 17 | 217 | 9.7 | 16.1 | 0.00 | 0.00 | 0.00 | 59 | 1008.2 |
| 20260505072338 | 17 | 138 | 11.3 | 17.7 | 0.00 | 0.00 | 0.00 | 58 | 1008.2 |
| 20260505071341 | 17 | 141 | 11.3 | 17.7 | 0.00 | 0.00 | 0.00 | 60 | 1008.1 |
| 20260505070318 | 16 | 147 | 8.0 | 17.7 | 0.00 | 0.00 | 0.00 | 62 | 1008.1 |
| 20260505065328 | 15 | 145 | 9.7 | 16.1 | 0.00 | 0.00 | 0.00 | 65 | 1008.0 |
| 20260505064316 | 15 | 156 | 4.8 | 11.3 | 0.00 | 0.00 | 0.00 | 68 | 1008.2 |
| 20260505063344 | 14 | 177 | 3.2 | 6.4 | 0.00 | 0.00 | 0.00 | 70 | 1008.3 |
| 20260505062315 | 14 | 175 | 1.6 | 4.8 | 0.00 | 0.00 | 0.00 | 72 | 1008.3 |
| 20260505061317 | 14 | 191 | 0.0 | 1.6 | 0.00 | 0.00 | 0.00 | 71 | 1008.4 |
| 20260505060322 | 15 | 191 | 0.0 | 3.2 | 0.00 | 0.00 | 0.00 | 68 | 1008.4 |
| 20260505055318 | 16 | 191 | 0.0 | 3.2 | 0.00 | 0.00 | 0.00 | 65 | 1008.3 |
| 20260505054317 | 16 | 191 | 0.0 | 3.2 | 0.00 | 0.00 | 0.00 | 62 | 1008.4 |
| 20260505053317 | 17 | 191 | 3.2 | 12.9 | 0.00 | 0.00 | 0.00 | 60 | 1008.4 |
| 20260505052340 | 17 | 168 | 6.4 | 12.9 | 0.00 | 0.00 | 0.00 | 60 | 1008.4 |
| 20260505051341 | 17 | 161 | 8.0 | 12.9 | 0.00 | 0.00 | 0.00 | 60 | 1008.4 |
| 20260505050320 | 17 | 155 | 8.0 | 19.3 | 0.00 | 0.00 | 0.00 | 61 | 1008.4 |
| 20260505041341 | 18 | 158 | 9.7 | 19.3 | 0.00 | 0.00 | 0.00 | 59 | 1008.3 |
| 20260505040320 | 18 | 149 | 8.0 | 17.7 | 0.00 | 0.00 | 0.00 | 59 | 1008.3 |
| 20260505035331 | 18 | 176 | 9.7 | 17.7 | 0.00 | 0.00 | 0.00 | 59 | 1008.3 |
| 20260505034327 | 18 | 115 | 6.4 | 12.9 | 0.00 | 0.00 | 0.00 | 58 | 1008.2 |
| 20260505033401 | 18 | 154 | 6.4 | 17.7 | 0.00 | 0.00 | 0.00 | 57 | 1008.2 |
| 20260505032316 | 18 | 163 | 9.7 | 17.7 | 0.00 | 0.00 | 0.00 | 56 | 1008.3 |
| 20260505031338 | 18 | 150 | 8.0 | 17.7 | 0.00 | 0.00 | 0.00 | 56 | 1008.3 |
| 20260505030316 | 18 | 180 | 9.7 | 17.7 | 0.00 | 0.00 | 0.00 | 55 | 1008.4 |
| 20260505025317 | 18 | 179 | 11.3 | 20.9 | 0.00 | 0.00 | 0.00 | 55 | 1008.4 |
| 20260505024317 | 18 | 172 | 8.0 | 16.1 | 0.00 | 0.00 | 0.00 | 55 | 1008.4 |
| 20260505023339 | 18 | 143 | 6.4 | 12.9 | 0.00 | 0.00 | 0.00 | 55 | 1008.4 |
| 20260505022336 | 18 | 199 | 6.4 | 12.9 | 0.00 | 0.00 | 0.00 | 55 | 1008.3 |
| 20260505021339 | 18 | 171 | 6.4 | 12.9 | 0.00 | 0.00 | 0.00 | 55 | 1008.3 |
| 20260505020319 | 18 | 201 | 4.8 | 11.3 | 0.00 | 0.00 | 0.00 | 54 | 1008.3 |
| 20260505015319 | 19 | 150 | 4.8 | 11.3 | 0.00 | 0.00 | 0.00 | 53 | 1008.2 |
| 20260505014320 | 20 | 184 | 6.4 | 16.1 | 0.00 | 0.00 | 0.00 | 51 | 1008.1 |
| 20260505013339 | 20 | 163 | 6.4 | 16.1 | 0.00 | 0.00 | 0.00 | 49 | 1008.0 |
| 20260505012353 | 20 | 176 | 9.7 | 16.1 | 0.00 | 0.00 | 0.00 | 49 | 1007.7 |
| 20260505011337 | 20 | 218 | 9.7 | 16.1 | 0.00 | 0.00 | 0.00 | 48 | 1007.8 |
| 20260505010333 | 21 | 159 | 8.0 | 14.5 | 0.00 | 0.00 | 0.00 | 47 | 1007.7 |
| 20260505005337 | 21 | 165 | 9.7 | 16.1 | 0.00 | 0.00 | 0.00 | 46 | 1007.4 |
| 20260505004317 | 21 | 160 | 8.0 | 19.3 | 0.00 | 0.00 | 0.00 | 46 | 1007.2 |
| 20260505003354 | 21 | 161 | 8.0 | 16.1 | 0.00 | 0.00 | 0.00 | 46 | 1007.1 |